Find Starlink 32434

NORAD ID: 61913 Int'l Des: 2024-207 Owner: SPXS Country: US Constellation: starlink operational
LEOCIRCULAR

Current View

Loading 3D Globe...

About Starlink 32434

Starlink 32434 (NORAD 61913) is a starlink constellation satellite (v2 mini) launched Nov 11, 2024 by SPXS of US. It operates in LEO, CIRCULAR orbit with a mass of 730.00 kg.

Upcoming Passes

Passes for default location (London). Set your location on the main map for personalized predictions.

Altitude History

Loading altitude history...

Two-Line Element Set

1 61913U 24207B 26263.31333220 .00007522 00000-0 28254-3 0 9991
2 61913 43.0000 262.9220 0001532 279.6238 80.4440 15.27585916104486
Epoch: Sep 20, 2026 • Age: 17 hours

Current Status

Altitude 495.2 km
Apogee / Perigee N/A
Velocity 7.62 km/s
Sub-Earth Point -42.86°S, 171.03°E
Launch Date Nov 11, 2024
Age 1.8 years
Type internet

Technical Details

Classification Payload
Mass 730.00 kg
Dry Mass 700.00 kg
Length 0.30 m
Span 29.00 m
Shape ? Box + pan
Manufacturer SPXS
Bus Type Starlink V2M
Phase Status In Orbit
Owner/State SPXS/US

Most Searched